Temperature
12 11 10 11 11 11 12 11 11 12 13 12 11 11 12 12 11 11 10 10 10 9 9 8 8 8 8 8 8 9 9 9 9 9 9 9 9 9 10 10 10 10 10 9
11 10 10 11 11 11 11 10 10 11 12 11 11 11 11 11 10 10 10 9 9 8 8 8 7 7 7 7 8 8 8 8 9 9 9 9 9 9 9 9 9 9 9 9
10 10 11 11 10 10 10 10 10 10 10 11 10 10 10 10 10 9 9 8 8 8 7 7 7 7 7 7 7 7 7 8 8 8 8 8 8 8 8 9 9 9 9 9
10 10 10 10 9 9 9 10 9 9 8 8 10 8 9 9 9 8 8 8 7 7 7 6 6 6 6 6 7 7 7 7 7 8 8 8 8 8 8 8 8 8 8 8
9 9 8 8 9 9 9 9 9 9 8 7 8 8 8 9 8 8 7 7 6 6 6 5 5 5 5 5 6 6 6 7 7 7 7 7 7 7 7 7 7 7 8 8
9 9 8 8 8 8 8 8 8 8 7 6 8 8 7 7 7 7 6 6 5 5 5 4 4 5 5 5 5 5 6 6 6 6 6 7 7 7 7 7 7 7 7 7
8 8 8 7 7 7 7 6 6 6 6 6 8 7 6 6 6 6 5 4 4 4 4 3 3 3 4 4 4 5 5 5 5 6 6 6 6 6 6 7 6 6 7 7
6 6 7 6 6 6 6 6 5 5 6 7 8 6 5 5 5 5 4 3 3 3 3 2 3 3 3 3 3 4 4 4 5 5 5 5 5 5 6 6 6 6 6 6
5 5 6 7 7 6 6 5 6 5 5 5 6 6 5 5 4 3 3 2 2 2 2 2 2 2 2 2 3 3 3 4 4 4 4 5 5 5 5 5 5 5 5 5
5 4 5 6 6 6 5 5 4 4 4 5 6 6 3 3 2 2 2 2 1 1 1 1 1 2 2 2 2 2 2 3 3 4 4 4 4 4 4 4 4 5 5 5
4 3 4 5 4 4 4 4 4 4 4 4 4 4 3 2 2 1 1 1 1 0 0 1 1 1 1 1 2 2 2 2 2 2 3 3 4 4 4 4 4 4 4 4
4 3 2 4 5 5 4 4 3 2 3 3 3 2 2 1 1 1 1 0 0 0 -0 -0 0 0 1 1 1 1 1 1 1 2 2 3 3 3 3 3 3 3 3 4
2 2 1 3 3 3 3 3 3 2 2 1 2 2 2 1 1 0 0 -0 -0 -0 -1 -1 -0 -0 -0 -0 -0 -0 0 1 1 1 1 2 2 2 2 3 3 3 3 3
3 1 1 1 2 2 1 2 2 1 0 0 1 1 0 -0 -0 -0 -1 -1 -1 -1 -1 -1 -1 -1 -1 -1 -1 -1 -1 -0 -0 0 1 1 2 2 2 2 2 2 2 2
2 0 1 1 2 2 1 1 1 0 0 -0 0 0 -1 -1 -1 -1 -1 -1 -1 -2 -2 -2 -2 -2 -2 -2 -2 -2 -1 -1 -1 -0 0 1 1 1 1 1 2 2 2 2
1 0 0 0 2 2 1 0 0 0 -0 -0 -0 -1 -1 -1 -1 -2 -2 -2 -2 -3 -3 -2 -2 -2 -2 -2 -2 -2 -2 -1 -1 -1 -0 -0 0 1 1 1 1 1 1 1
-0 -1 -1 -0 1 1 -0 -1 -1 -1 -1 -1 -2 -2 -2 -2 -2 -2 -3 -3 -3 -3 -3 -3 -3 -3 -3 -3 -3 -3 -2 -2 -2 -1 -1 -1 -1 -0 -0 0 0 0 0 1
-1 -1 -1 -1 -0 -2 -1 -1 -1 -1 -2 -2 -2 -2 -2 -2 -2 -3 -3 -4 -4 -4 -4 -4 -3 -3 -3 -3 -3 -3 -3 -2 -2 -2 -2 -1 -1 -1 -1 -1 -1 -0 -0 -0
-0 -1 -2 -1 -2 -1 -1 -1 -2 -3 -3 -3 -3 -3 -3 -3 -3 -3 -3 -4 -4 -4 -4 -4 -4 -4 -4 -4 -3 -3 -3 -3 -3 -2 -2 -2 -2 -2 -1 -1 -1 -1 -1 -1
-1 -1 -2 -2 -2 -2 -3 -2 -2 -2 -3 -3 -3 -4 -4 -4 -4 -4 -4 -4 -5 -4 -4 -4 -4 -4 -4 -4 -4 -4 -4 -3 -3 -3 -3 -2 -2 -2 -2 -2 -2 -2 -1 -1
-2 -3 -3 -3 -3 -3 -4 -3 -2 -3 -4 -4 -4 -4 -4 -5 -5 -5 -5 -5 -5 -5 -5 -5 -4 -4 -4 -4 -4 -4 -4 -4 -4 -4 -3 -3 -3 -3 -3 -3 -2 -2 -2 -2
-3 -3 -3 -3 -3 -4 -4 -4 -4 -5 -4 -4 -4 -5 -5 -5 -5 -6 -6 -6 -6 -6 -5 -5 -5 -5 -5 -5 -5 -5 -5 -5 -4 -4 -4 -4 -3 -3 -3 -3 -3 -3 -3 -3
-4 -4 -4 -4 -4 -4 -4 -4 -5 -5 -5 -5 -5 -6 -6 -6 -6 -6 -6 -6 -6 -6 -6 -6 -6 -5 -5 -5 -5 -5 -5 -5 -5 -5 -4 -4 -4 -4 -4 -4 -4 -4 -4 -4
-4 -3 -4 -4 -4 -4 -4 -4 -5 -5 -6 -6 -6 -6 -6 -7 -7 -7 -7 -7 -7 -7 -7 -6 -6 -6 -6 -6 -6 -6 -6 -5 -5 -5 -5 -5 -4 -4 -4 -4 -4 -4 -4 -4
-4 -5 -5 -5 -5 -5 -5 -5 -6 -6 -6 -6 -7 -7 -7 -7 -8 -8 -8 -8 -8 -7 -7 -7 -7 -7 -7 -6 -6 -6 -6 -6 -6 -6 -5 -5 -5 -5 -5 -5 -5 -5 -5 -5
-5 -6 -6 -6 -5 -6 -6 -6 -6 -7 -7 -7 -7 -8 -8 -8 -8 -8 -8 -8 -8 -8 -8 -8 -8 -7 -7 -7 -7 -6 -6 -6 -6 -6 -6 -6 -5 -6 -6 -6 -6 -6 -6 -5
Wind_Speed
2 1 2 3 5 7 8 9 10 8 5 5 8 9 6 2 1 1 0 0 1 1 1 2 2 2 2 2 2 1 1 0 1 1 1 2 2 1 1 1 2 3 3 3
1 2 4 5 5 7 8 9 10 8 6 7 8 9 6 2 2 0 1 1 1 2 2 2 3 3 2 1 1 1 1 1 1 1 2 1 2 2 2 2 2 2 3 3
2 2 3 4 5 7 8 7 8 9 9 7 8 7 4 1 2 2 2 2 3 3 3 3 3 3 3 2 0 1 1 1 1 1 1 1 2 1 1 1 1 2 3 3
3 3 4 5 5 6 8 5 8 9 7 5 4 5 4 2 1 1 1 2 3 4 4 4 4 3 3 3 1 1 1 1 1 1 1 2 2 2 2 2 1 2 3 3
2 3 4 5 6 6 6 8 10 10 8 8 7 6 3 1 1 1 2 3 5 6 6 6 5 4 3 4 3 1 1 1 1 1 1 2 2 2 2 2 3 2 2 3
3 1 2 4 6 5 6 8 10 8 5 6 7 6 2 1 1 2 4 6 7 7 7 7 7 6 5 5 4 3 2 1 0 0 1 1 2 3 3 2 2 2 2 2
4 1 2 3 5 3 5 4 3 2 4 5 1 2 1 4 6 7 7 7 7 7 7 7 8 7 6 5 4 4 2 2 1 1 1 0 1 3 3 3 2 2 2 1
4 3 2 3 3 4 5 3 2 4 4 4 3 3 2 7 9 10 10 9 9 8 7 7 7 6 6 6 5 4 3 3 2 1 1 0 1 1 2 2 2 2 2 2
4 4 2 3 3 3 3 3 4 5 6 5 4 3 3 8 10 10 11 11 10 9 7 7 7 7 6 5 5 4 3 3 3 2 2 2 2 2 2 2 3 2 2 2
4 6 5 2 1 1 2 3 3 3 3 4 5 2 2 5 6 8 9 9 9 9 8 7 6 6 6 5 5 5 5 4 3 3 2 2 2 2 2 3 3 3 3 2
4 4 5 3 2 1 1 2 3 4 4 3 4 1 4 6 6 7 7 7 8 8 8 7 7 6 6 6 6 6 6 6 4 3 3 3 2 2 2 2 2 2 3 3
4 3 5 5 0 2 2 2 2 2 4 4 3 0 6 7 7 8 8 8 9 8 8 7 7 7 7 7 6 6 6 5 5 4 3 3 3 2 3 2 3 3 3 3
5 3 4 3 0 2 2 3 3 3 3 4 3 2 4 8 8 8 8 9 8 8 9 7 7 7 7 7 6 6 6 5 5 4 3 3 3 3 2 2 2 3 3 3
5 3 4 5 4 3 4 5 4 2 3 5 5 5 6 10 10 10 9 9 8 7 8 8 7 7 7 7 7 6 6 6 5 4 4 3 3 3 3 2 2 3 3 3
3 4 5 8 8 5 4 5 4 3 5 5 6 6 6 7 8 8 8 9 9 9 9 8 8 7 7 7 7 6 6 6 5 4 4 3 3 3 3 3 3 3 3 2
3 4 6 7 7 5 5 5 4 4 5 7 7 6 6 7 7 7 8 9 9 9 10 9 8 8 7 7 7 6 6 6 4 4 4 3 3 3 3 3 2 2 3 3
3 3 4 5 4 4 4 2 2 1 2 3 4 5 7 8 8 7 7 8 9 10 10 9 8 8 7 6 6 6 5 5 4 4 4 3 2 3 3 2 2 2 2 2
3 4 3 4 4 4 1 3 2 0 2 3 3 6 7 7 6 5 6 8 9 9 10 9 8 8 7 6 6 6 5 5 4 4 4 4 3 3 3 3 2 2 2 2
2 2 3 2 3 4 1 3 3 2 2 4 5 7 8 8 5 3 7 9 8 8 8 7 7 8 7 6 6 6 5 5 5 4 4 3 3 2 2 2 2 2 1 2
1 1 2 3 3 3 1 3 5 3 1 6 7 7 8 8 5 5 9 10 9 9 7 7 7 7 7 6 6 6 5 5 5 5 4 4 3 2 2 2 2 2 1 1
1 2 2 4 3 2 2 5 4 1 3 6 6 6 6 5 4 7 9 9 8 8 8 8 7 6 6 6 6 5 5 5 5 5 4 4 3 3 2 2 2 2 1 1
1 2 1 2 3 2 3 3 2 2 4 6 6 6 6 6 7 8 8 8 9 8 8 8 6 6 6 5 5 6 5 5 5 5 4 4 4 3 3 2 2 2 2 2
1 2 2 2 2 1 0 0 2 3 5 5 6 7 6 7 7 8 8 8 8 8 8 7 6 6 6 5 5 5 5 5 5 5 4 4 4 3 3 2 2 2 2 2
1 1 2 3 3 2 2 2 3 4 4 5 6 6 6 7 7 7 7 7 7 7 7 7 6 6 7 6 5 5 5 5 4 4 4 3 3 3 3 3 2 2 2 2
2 1 3 4 4 4 2 4 5 6 5 6 6 6 6 6 7 7 7 7 7 7 7 6 6 6 6 6 6 6 5 4 4 4 4 3 3 2 2 3 2 2 2 2
1 2 3 3 2 3 4 5 6 6 6 6 6 7 6 6 7 7 6 6 6 7 6 6 6 6 6 6 6 6 5 4 4 4 4 3 2 2 2 2 3 5 4 4
Wind_Direction
204 235 255 271 262 275 286 286 284 286 307 288 259 264 271 244 262 259 272 196 63 32 33 49 61 66 86 90 94 106 124 131 118 135 163 161 179 166 150 122 131 141 142 146
255 254 282 294 290 286 284 284 290 297 312 300 273 269 269 233 218 332 9 37 52 14 29 39 48 51 58 84 95 135 152 157 149 169 176 175 167 170 168 145 130 130 136 144
285 328 316 299 300 298 281 274 291 298 306 280 275 271 244 168 92 46 34 33 32 31 22 33 44 36 28 26 61 176 155 156 137 147 156 155 134 128 133 161 154 108 117 127
299 347 339 318 303 300 285 317 303 294 295 278 263 272 237 177 109 71 44 49 30 30 27 25 29 26 18 1 6 112 138 145 144 145 161 168 171 171 179 172 157 124 116 114
310 355 334 316 318 310 293 314 290 277 270 275 260 250 262 133 355 25 49 52 43 36 33 25 17 10 18 17 23 46 73 108 148 155 178 187 179 172 154 147 145 143 123 112
280 348 355 334 326 314 320 308 282 258 244 256 244 228 291 7 19 46 49 47 41 36 30 24 17 15 16 21 27 31 43 24 63 132 173 190 171 153 143 136 142 144 133 120
308 212 70 3 330 313 328 326 314 278 221 236 223 213 260 39 41 50 48 39 29 29 26 21 18 12 9 15 19 21 29 20 27 91 119 203 161 149 146 145 153 149 146 144
322 303 47 10 342 312 289 284 268 272 270 291 280 225 100 57 52 47 43 36 27 23 19 15 14 12 6 7 12 14 21 18 29 57 65 91 97 123 128 121 120 137 157 161
324 294 328 332 328 315 298 278 291 292 290 281 254 181 112 43 39 34 29 23 17 13 12 11 11 8 3 7 8 8 14 14 18 32 43 56 61 60 85 97 96 93 73 108
316 291 294 325 298 275 292 325 314 283 281 269 262 257 7 15 16 19 21 14 6 5 4 6 6 4 4 6 6 11 15 13 19 27 34 44 52 65 68 86 80 79 70 76
309 281 292 301 248 296 303 289 278 282 276 280 282 9 34 37 35 24 18 11 3 0 1 1 1 0 4 10 14 11 10 13 13 21 31 44 51 65 70 81 83 81 66 76
339 303 279 271 255 53 19 331 321 290 291 289 282 273 43 49 39 28 16 10 3 2 0 1 1 3 7 8 9 7 5 8 9 15 29 43 51 66 74 76 73 69 69 61
338 307 302 300 350 39 7 360 339 304 294 281 270 264 28 25 17 14 9 5 2 7 4 3 4 5 4 4 3 1 2 5 5 15 24 47 54 57 71 73 81 70 71 63
327 267 238 262 300 319 308 320 327 296 262 277 275 296 340 358 355 355 358 359 5 5 4 5 3 4 1 358 357 358 357 1 3 8 16 36 50 55 64 68 81 83 77 76
319 279 278 281 289 292 297 300 297 264 271 277 299 310 335 341 341 347 353 355 2 4 4 4 1 357 355 352 351 353 354 355 359 8 9 19 41 50 57 60 70 73 75 72
315 288 299 283 271 280 285 306 291 273 281 286 299 304 346 342 350 358 358 358 358 358 358 357 357 354 350 347 346 347 347 345 355 5 5 10 36 48 51 53 56 68 70 66
287 291 294 283 311 306 284 310 301 332 353 314 298 315 341 347 350 351 356 5 2 355 351 351 351 348 344 342 341 341 340 342 353 360 4 9 25 38 39 46 54 69 73 75
263 277 265 285 309 257 173 54 31 346 3 344 341 350 357 344 332 351 15 8 354 347 345 343 345 344 343 345 347 346 348 353 358 3 5 6 17 25 31 40 46 44 67 79
248 260 275 280 277 262 133 26 5 328 324 16 357 350 351 340 328 356 14 2 348 340 338 337 341 340 342 348 348 349 354 358 4 3 358 0 6 18 29 33 30 33 54 65
346 311 266 275 276 279 358 347 328 309 280 16 360 345 345 348 338 320 342 343 342 342 340 340 341 343 346 348 352 353 354 358 359 355 355 357 1 12 24 20 18 17 49 82
321 282 258 267 261 271 352 323 339 338 298 336 343 340 342 333 301 308 327 336 339 339 340 342 341 342 342 346 352 349 352 351 348 350 356 360 1 4 14 11 15 28 38 64
272 290 277 289 263 273 9 12 27 297 322 332 337 339 330 318 318 326 332 335 338 340 342 343 341 339 342 349 351 345 346 346 350 351 357 360 1 5 11 22 20 25 38 52
200 225 266 235 240 271 34 21 314 330 322 326 331 331 328 323 323 329 331 334 336 339 339 341 340 340 345 350 351 344 341 347 351 352 354 355 1 8 10 19 19 21 24 30
223 261 265 276 274 301 308 336 344 336 324 324 329 330 330 323 323 327 330 333 337 339 339 341 342 341 341 344 347 341 342 346 348 350 350 350 359 5 10 10 8 12 10 11
276 280 269 260 293 316 315 353 348 341 341 337 334 331 328 326 323 325 326 330 334 335 337 340 341 338 337 342 344 343 343 344 345 345 345 349 356 359 4 6 2 352 346 333
241 235 251 264 316 301 304 338 346 340 338 336 334 330 332 329 322 324 322 325 328 330 334 337 340 339 338 340 338 340 340 341 342 338 342 344 343 349 359 2 5 7 360 357
Height
1493 1497 1498 1496 1495 1494 1493 1492 1490 1486 1482 1484 1483 1482 1481 1481 1482 1482 1484 1484 1485 1486 1487 1487 1487 1486 1487 1486 1487 1488 1489 1490 1492 1493 1495 1497 1499 1501 1502 1504 1506 1507 1509 1511
1494 1497 1496 1494 1493 1493 1493 1493 1491 1486 1483 1484 1482 1480 1479 1479 1480 1481 1482 1483 1484 1485 1485 1485 1485 1484 1484 1484 1484 1485 1486 1487 1488 1490 1492 1494 1496 1498 1499 1501 1503 1504 1506 1508
1496 1496 1494 1494 1494 1494 1493 1494 1493 1491 1487 1483 1482 1481 1478 1476 1478 1480 1481 1482 1483 1483 1483 1483 1483 1482 1482 1482 1482 1482 1483 1484 1486 1488 1490 1491 1493 1494 1496 1497 1499 1501 1503 1504
1496 1496 1495 1495 1495 1495 1495 1492 1492 1491 1493 1491 1484 1489 1478 1476 1479 1479 1481 1481 1482 1483 1483 1483 1482 1481 1480 1480 1480 1480 1481 1482 1483 1485 1486 1488 1489 1490 1492 1494 1496 1498 1500 1501
1497 1497 1498 1497 1497 1496 1494 1492 1491 1490 1491 1492 1485 1489 1481 1476 1480 1480 1482 1482 1482 1483 1482 1482 1481 1481 1480 1479 1479 1479 1479 1480 1481 1482 1484 1485 1487 1488 1489 1491 1493 1494 1496 1498
1498 1498 1499 1499 1498 1497 1495 1493 1488 1486 1490 1495 1483 1485 1485 1482 1482 1482 1483 1483 1483 1483 1483 1482 1481 1480 1479 1478 1477 1477 1478 1478 1479 1480 1481 1483 1484 1485 1486 1488 1489 1491 1493 1495
1499 1498 1499 1500 1500 1498 1499 1501 1500 1494 1493 1489 1478 1483 1490 1485 1484 1484 1485 1485 1485 1484 1483 1482 1481 1479 1479 1478 1476 1476 1476 1477 1477 1478 1479 1481 1482 1483 1484 1485 1486 1488 1490 1492
1509 1506 1501 1502 1502 1503 1501 1501 1506 1504 1494 1485 1480 1484 1490 1488 1487 1487 1487 1487 1486 1485 1484 1483 1482 1480 1479 1478 1476 1475 1475 1475 1476 1476 1477 1479 1480 1481 1482 1483 1484 1485 1487 1489
1514 1509 1502 1502 1501 1502 1502 1502 1499 1502 1496 1494 1485 1483 1488 1488 1489 1489 1489 1488 1488 1486 1485 1484 1482 1481 1479 1478 1476 1475 1474 1474 1474 1475 1476 1477 1478 1479 1480 1481 1482 1483 1485 1486
1515 1515 1505 1502 1502 1502 1503 1503 1505 1505 1502 1495 1484 1484 1496 1495 1494 1493 1492 1491 1490 1488 1486 1485 1483 1481 1480 1478 1477 1475 1474 1474 1473 1474 1474 1475 1476 1477 1478 1479 1480 1481 1482 1483
1516 1517 1510 1505 1503 1504 1505 1506 1504 1503 1500 1500 1496 1499 1500 1499 1497 1496 1495 1494 1492 1490 1487 1485 1483 1482 1480 1478 1477 1475 1474 1473 1472 1473 1473 1473 1474 1475 1476 1477 1478 1479 1480 1481
1517 1518 1515 1506 1502 1502 1504 1506 1507 1511 1507 1501 1503 1508 1501 1500 1499 1498 1497 1495 1493 1491 1489 1486 1484 1482 1480 1478 1476 1475 1473 1472 1472 1472 1472 1472 1473 1474 1474 1475 1476 1477 1477 1478
1520 1521 1520 1509 1508 1508 1508 1508 1508 1509 1510 1509 1508 1508 1502 1500 1499 1499 1498 1496 1493 1491 1489 1486 1484 1482 1480 1477 1476 1474 1473 1472 1471 1471 1471 1470 1471 1472 1472 1473 1474 1475 1476 1477
1521 1521 1522 1520 1514 1513 1512 1511 1510 1513 1515 1511 1507 1506 1505 1504 1502 1501 1499 1497 1494 1492 1490 1487 1484 1482 1480 1478 1476 1474 1473 1471 1470 1470 1469 1469 1469 1470 1471 1471 1472 1473 1474 1475
1521 1522 1517 1514 1510 1509 1510 1511 1510 1513 1512 1512 1508 1507 1508 1507 1505 1503 1500 1497 1495 1492 1490 1487 1485 1483 1481 1478 1476 1474 1472 1471 1470 1469 1468 1468 1468 1469 1469 1470 1471 1471 1472 1473
1521 1522 1518 1514 1508 1506 1509 1510 1509 1510 1511 1510 1508 1509 1508 1507 1504 1503 1500 1498 1495 1493 1490 1488 1485 1483 1480 1478 1476 1474 1472 1471 1469 1468 1467 1467 1467 1467 1468 1468 1469 1470 1470 1471
1522 1523 1521 1515 1508 1508 1511 1512 1511 1511 1512 1512 1513 1513 1509 1506 1505 1503 1501 1499 1496 1494 1491 1488 1486 1483 1481 1478 1476 1474 1472 1470 1469 1468 1467 1467 1467 1466 1466 1467 1468 1468 1469 1469
1522 1522 1521 1517 1514 1519 1518 1512 1511 1512 1513 1512 1512 1511 1510 1508 1505 1503 1502 1499 1496 1494 1491 1488 1486 1483 1480 1478 1476 1474 1472 1470 1469 1467 1466 1466 1466 1466 1466 1466 1466 1467 1467 1468
1519 1521 1521 1519 1517 1513 1514 1513 1513 1514 1514 1513 1512 1511 1509 1507 1503 1502 1501 1499 1497 1494 1491 1488 1485 1483 1480 1477 1475 1473 1471 1470 1468 1467 1466 1465 1466 1465 1465 1464 1465 1466 1466 1466
1519 1520 1522 1519 1519 1517 1519 1515 1513 1514 1514 1514 1513 1511 1510 1507 1506 1503 1500 1498 1495 1492 1489 1487 1484 1481 1479 1476 1474 1472 1470 1469 1468 1466 1466 1465 1465 1464 1464 1464 1464 1464 1465 1465
1523 1522 1523 1522 1520 1519 1520 1515 1513 1518 1520 1515 1513 1511 1510 1508 1508 1504 1500 1497 1494 1491 1488 1485 1482 1480 1478 1476 1473 1471 1470 1468 1468 1466 1466 1465 1464 1464 1463 1463 1463 1463 1463 1464
1525 1525 1524 1522 1522 1524 1520 1517 1519 1520 1517 1514 1512 1511 1509 1506 1504 1501 1498 1495 1492 1489 1486 1483 1481 1479 1477 1475 1473 1471 1469 1468 1467 1466 1465 1464 1464 1463 1463 1462 1462 1462 1462 1462
1524 1526 1524 1524 1525 1521 1519 1519 1519 1517 1515 1513 1511 1509 1507 1504 1502 1499 1496 1493 1490 1488 1485 1482 1480 1478 1476 1474 1472 1470 1469 1468 1466 1465 1464 1464 1463 1463 1462 1462 1461 1461 1461 1461
1522 1521 1522 1521 1519 1518 1518 1517 1516 1515 1513 1512 1510 1508 1505 1502 1500 1497 1494 1491 1489 1486 1483 1481 1479 1476 1474 1473 1471 1470 1468 1467 1466 1465 1464 1463 1462 1462 1461 1461 1461 1461 1460 1460
1522 1521 1521 1520 1518 1517 1516 1515 1514 1512 1511 1509 1507 1505 1503 1500 1498 1495 1492 1490 1487 1485 1482 1480 1477 1475 1473 1472 1470 1469 1467 1466 1465 1464 1463 1462 1461 1461 1460 1460 1460 1460 1460 1460
1520 1521 1521 1519 1518 1517 1515 1514 1512 1510 1508 1507 1504 1502 1500 1498 1495 1493 1490 1488 1485 1483 1480 1478 1476 1474 1472 1470 1469 1467 1466 1465 1464 1463 1462 1461 1460 1460 1459 1459 1459 1459 1459 1458